Hourly Data Report for August 16, 2006

TORONTO CITY
ONTARIO

43°40'00.000" N
79°24'00.000" W
112.50 m
6158355
71508
XTO

Download Data

Hourly Data (August 2006)
Hourly Data Report for August 16, 2006
TIME
LST
Temp Definition
°C
Dew Point Definition
°C
Rel Hum Definition
%
Precip. Amount Definition
mm

Wind Dir Definition
10's deg

Wind Spd Definition
km/h
Visibility Definition
km
Stn Press Definition
kPa
Hmdx Definition


Wind Chill Definition


Weather Definition


00:00 19.1 13.6 70   LegendMM LegendMM   100.39     LegendNANA
01:00 18.5 13.8 74   LegendMM LegendMM   100.42     LegendNANA
02:00 17.6 13.8 78   LegendMM LegendMM   100.44     LegendNANA
03:00 17.0 13.8 81   LegendMM LegendMM   100.47     LegendNANA
04:00 17.1 14.1 83   LegendMM LegendMM   100.49     LegendNANA
05:00 16.9 14.0 83   LegendMM LegendMM   100.57     LegendNANA
06:00 17.0 14.3 84   LegendMM LegendMM   100.65     LegendNANA
07:00 18.5 15.3 82   LegendMM LegendMM   100.72     LegendNANA
08:00 20.3 15.2 73   LegendMM LegendMM   100.79     LegendNANA
09:00 22.0 16.3 70   LegendMM LegendMM   100.81 27   LegendNANA
10:00 23.0 15.2 61   LegendMM LegendMM   100.84 27   LegendNANA
11:00 22.8 16.6 68   LegendMM LegendMM   100.85 28   LegendNANA
12:00 23.5 15.6 61   LegendMM LegendMM   100.84 28   LegendNANA
13:00 23.9 16.2 62   LegendMM LegendMM   100.84 29   LegendNANA
14:00 23.5 15.5 61   LegendMM LegendMM   100.84 28   LegendNANA
15:00 25.2 16.4 58   LegendMM LegendMM   100.81 30   LegendNANA
16:00 24.6 15.4 57   LegendMM LegendMM   100.78 29   LegendNANA
17:00 24.2 15.2 57   LegendMM LegendMM   100.77 28   LegendNANA
18:00 23.5 14.1 56   LegendMM LegendMM   100.79 27   LegendNANA
19:00 23.1 13.5 55   LegendMM LegendMM   100.82 26   LegendNANA
20:00 22.8 14.8 61   LegendMM LegendMM   100.82 27   LegendNANA
21:00 22.7 15.3 63   LegendMM LegendMM   100.87 27   LegendNANA
22:00 22.4 16.6 70   LegendMM LegendMM   100.85 27   LegendNANA
23:00 21.1 16.7 76   LegendMM LegendMM   100.87 26   LegendNANA

Notes on Data Quality.

Legend

  • E = Estimated
  • M = Missing
  • NA = Not Available*
  • [empty] = Indicates an unobserved value
Date modified: